Powrót do katalogu

IRIDIUM 33 DEB

AktywnyPO
NORAD 34652·DEBRIS·🇺🇸 United States

Wystrzelony Sep 14, 1997 z Baikonur Cosmodrome

Loading…

Następne Przeloty (najbliższe 24 godziny)

TLE

ŚwieżeSource: Space-Track

Epoka: Sep 14, 2026, 08:37 UTC

1 34652U 97051KD  26257.35967192  .00002753  00000-0  51661-3 0  9995
2 34652  86.3316 217.0294 0030412  74.8492  76.6577 14.64100210925146

Śledź IRIDIUM 33 DEB w czasie rzeczywistym z AllMySat

Download on the App Store